Regional Weather Roundup
Issued by NWS

Home | Current Version | Previous Version | Graphics & Text | Print | Product List | Glossary On
Versions: 1 2 3 4 5 6 7 8 9 10 11 12 13 14 15 16 17 18 19 20 21 22 23 24 25 26 27 28 29 30 31 32 33 34 35 36 37 38 39 40 41 42 43 44 45 46 47 48 49 50
000
ASUS43 KMPX 300801
RWRMN
WEATHER ROUNDUP FOR MINNESOTA
NATIONAL WEATHER SERVICE TWIN CITIES/CHANHASSEN MN
300 AM CDT TUE SEP 30 2014


NOTE: "FAIR" INDICATES FEW OR NO CLOUDS BELOW 12,000 FEET WITH NO
SIGNIFICANT WEATHER AND/OR OBSTRUCTIONS TO VISIBILITY. N/A MEANS
CURRENT SKY AND/OR WEATHER CONDITIONS ARE NOT AVAILABLE.

MNZ060>063-068>070-300900-
   Twin Cities Metro

CITY           SKY/WX    TMP DP  RH WIND       PRES   REMARKS
TWIN CITIES    MOCLDY    43  38  82 E10       30.11S
ST PAUL        CLOUDY    43  39  86 E13       30.14R
CRYSTAL        CLOUDY    44  39  82 E10       30.10S
BLAINE         CLOUDY    45  43  93 E10       30.11S
LAKEVILLE      CLOUDY    39  39 100 E9        30.10S
EDEN PRAIRIE   PTCLDY    43  40  89 E9        30.09S
SOUTH ST PAUL  CLOUDY    43  39  85 E6        30.12S
LAKE ELMO      CLOUDY    43  39  87 E13       30.13S
$$
MNZ001>005-007-008-013>017-022>024-027-028-300900-
   Northwest Minnesota

CITY           SKY/WX    TMP DP  RH WIND       PRES   REMARKS
BEMIDJI        CLOUDY    45  41  88 SE8G17    30.09S
HALLOCK        PTCLDY    45  43  93 SE8       30.04F
ROSEAU         CLOUDY    43  37  81 E6        30.09F
WARROAD        CLOUDY    43  39  87 SE8       30.10F
THIEF RVR FALL CLEAR     43  39  87 E7        30.05F
CROOKSTON      CLEAR     43  41  93 E5        30.05F
FOSSTON        CLEAR     39  37  93 E7        30.05F
DETROIT LAKES  CLOUDY    43  41  93 SE16      30.05F
PARK RAPIDS    CLOUDY    43  40  89 SE12      30.08F
MAHNOMEN       FAIR      41  39  95 E5        30.05F
$$
MNZ006-009>011-018-025>026-300900-
   North Central Minnesota

CITY           SKY/WX    TMP DP  RH WIND       PRES   REMARKS
BAUDETTE       CLOUDY    42  40  92 SE6       30.12S
FLAG ISLAND    CLOUDY    46  45  93 S14G20    30.10S
INTL FALLS     CLOUDY    42  39  89 SE3       30.14F
WASKISH        CLOUDY    43  43 100 CALM      30.10F
BIG FORK       CLOUDY    45  41  87 SE7       30.13F
LONGVILLE      CLOUDY    43  39  87 SE6       30.11F
GRAND RAPIDS   CLOUDY    41  37  87 SE8       30.13F
CRANE LAKE     CLOUDY    41  39  93 CALM      30.17F
ORR            CLOUDY    41  37  87 CALM      30.13S
COOK           CLOUDY    43  39  87 SE5       30.15S
WALKER         CLOUDY    43  40  90 SE6       30.10F
$$
MNZ012-019>021-037-300900-
   Northeast Minnesota

CITY           SKY/WX    TMP DP  RH WIND       PRES   REMARKS
DULUTH         CLOUDY    43  38  82 SE8       30.15S
ELY            CLOUDY    41  37  87 CALM      30.16R
HIBBING        CLOUDY    42  39  89 SE8       30.15F
EVELETH        CLOUDY    43  41  93 SE7       30.16S
DULUTH HARBOR  CLOUDY    46  41  81 E8        30.18S
TWO HARBORS    CLOUDY    43  36  75 E6        30.15S
SILVER BAY     PTCLDY    39  39 100 NE6       30.15S
GRAND MARAIS     N/A     43  36  76 VRB3      30.19S
G MARAIS ARPRT CLOUDY    36  30  80 NE6       30.17S
$$
MNZ029>031-032-039>041-046>048-054>057-064-300900-
   West Central Minnesota

CITY           SKY/WX    TMP DP  RH WIND       PRES   REMARKS
FERGUS FALLS   CLEAR     43  37  81 SE13G20   30.06R
WHEATON        CLEAR     41  39  93 E12       30.04F
MORRIS         CLEAR     43  41  93 E12       30.04S
ALEXANDRIA     CLOUDY    42  40  92 E13G21    30.08F
ELBOW LAKE     MOCLDY    43  41  94 SE15      30.04S
WADENA         CLOUDY    43  39  87 SE14      30.08S
GLENWOOD       CLOUDY    43  41  93 E10G17    30.07F
APPLETON       CLEAR     45  43  93 E10       30.03F
BENSON         CLEAR     43  43 100 SE6       30.06S
ORTONVILLE     CLEAR     46  43  87 SE12      30.02F
MADISON        CLEAR     48  46  93 E9        30.03F
WILLMAR        FAIR      45  41  87 E12G17    30.08S
$$
MNZ033>034-036-042>043-049>051-058-059-300900-
   Central Minnesota

CITY           SKY/WX    TMP DP  RH WIND       PRES   REMARKS
ST CLOUD       CLOUDY    44  39  82 E8        30.11S
SAUK CENTRE    CLOUDY    41  40  93 E10G18    30.09S
PAYNESVILLE    CLOUDY    41  39  95 NE12      30.09S
AITKIN         CLOUDY    45  37  76 E5        30.12S
PINE RIVER     CLOUDY    43  39  87 SE8       30.14S
BRAINERD       CLOUDY    41  38  89 VRB3      30.13S
STAPLES        CLOUDY    43  39  87 E5        30.09F
LONG PRAIRIE   CLOUDY    39  37  93 E9        30.10S
LITTLE FALLS   CLOUDY    41  36  81 E6        30.11F
LITCHFIELD     CLOUDY    45  43  93 E12G17    30.09S
BUFFALO        CLOUDY    43  39  87 E8        30.12S
MAPLE LAKE     CLOUDY    43  41  93 E12       30.11F
$$
MNZ037-044-045-052-053-300900-
   East Central Minnesota

CITY           SKY/WX    TMP DP  RH WIND       PRES   REMARKS
MORA           CLOUDY    41  36  81 E6        30.15F
CAMBRIDGE      CLOUDY    45  36  70 NE8       30.11F
RUSH CITY      LGT RAIN  42  39  91 NE8G16    30.14S
MOOSE LAKE     CLOUDY    41  37  87 NE3       30.13F
HINCKLEY       CLOUDY    43  39  87 E7        30.14F
CLOQUET        CLOUDY    43  37  81 E8        30.15F
MCGREGOR       CLOUDY    41  37  87 E13       30.14F
$$
MNZ071>073-080-081-089-090-097-098-300900-
   Southwest Minnesota

CITY           SKY/WX    TMP DP  RH WIND       PRES   REMARKS
MONTEVIDEO     CLEAR     45  45 100 SE10      30.06S
GRANITE FALLS  CLEAR     45  42  91 E9        30.06F
CANBY          PTCLDY    47  46  95 E7        30.03F
MARSHALL       PTCLDY    46  43  87 SE14      30.02F
REDWOOD FALLS  CLEAR     46  43  89 E10       30.05F
OLIVIA         CLEAR     43  41  93 E8        30.06S
PIPESTONE      PTCLDY    52  46  82 SE13G18   29.97F
WINDOM         PTCLDY    48  46  93 E8        30.04S
WORTHINGTON    MOCLDY    50  46  87 E12       30.02F
JACKSON        CLOUDY    48  45  87 E5        30.04S
TRACY          PTCLDY    48  46  95 E6        30.03F
SLAYTON        MOCLDY    49  47  93 E13       30.02F
$$
MNZ065>067-074>077-082>085-091>093-300900-
   South Central Minnesota

CITY           SKY/WX    TMP DP  RH WIND       PRES   REMARKS
MANKATO        CLEAR     45  37  76 E8        30.07S
NEW ULM        CLEAR     45  45 100 E7        30.07S
ST JAMES       CLEAR     46  45  93 E7        30.06F
FAIRMONT       CLEAR     46  43  87 E6        30.04F
GLENCOE        CLEAR     43  39  87 E7        30.08F
FARIBAULT      CLEAR     45  37  76 NE3       30.09S
OWATONNA       CLEAR     43  39  87 E7        30.08S
WASECA         CLEAR     43  37  81 E8        30.09S
ALBERT LEA     CLEAR     46  45  93 E7        30.07R
$$
MNZ078>079-086>088-094>096-300900-
   Southeast Minnesota

CITY           SKY/WX    TMP DP  RH WIND       PRES   REMARKS
ROCHESTER      MOCLDY    43  41  93 E10       30.09R
RED WING       CLOUDY    45  39  81 E9        30.11S
STANTON        PTCLDY    40  38  91 NE5       30.09S
DODGE CENTER   PTCLDY    43  41  93 E9        30.07F
WINONA         CLOUDY    43  39  87 E6        30.12S
AUSTIN         CLEAR     45  43  93 E6        30.07S
PRESTON        CLOUDY    44  42  92 E8        30.09R
$$
ABBREVIATIONS USED IN REMARKS
   TC - TEMPERATURES IN CELSIUS
  WCI - WIND CHILL INDEX
   HX - HEAT INDEX
  VSB - VISIBILITY
$$


USA.gov is the U.S. government's official web portal to all federal, state and local government web resources and services.